Tracking 17150 objects as of 4-August-2015
HD Live streaming from Space Station

CZ-4 DEB

Track CZ-4 DEB now!
10-day predictions
CZ-4 DEB is classified as:


NORAD ID: 26650
Int'l Code: 1999-057LG
Perigee: 636.3 km
Apogee: 652.3 km
Inclination: 98.6 °
Period: 97.5 minutes
Semi major axis: 7015 km
RCS: 0.0056 m2 (small)
Launch date: October 14, 1999
Source: People's Republic of China (PRC)

Note: This is SATELLITE DEBRIS
Your satellite tracking list
Your tracking list is empty





NASA's NSSDC Master Catalog

Two Line Element Set (TLE):
1 26650U 99057LG  15215.59202956  .00001505  00000-0  21901-3 0  9998
2 26650 098.6057 246.2900 0011418 199.8380 319.1891 14.77521603809827

Source of the keplerian elements: AFSPC

N2YO: 355